Tracking 26308 objects as of 30-Nov-2022
HD Live streaming from Space Station
objects crossing your sky now

COSMOS 1408 DEB

Track COSMOS 1408 DEB now!
10-day predictions


NORAD ID: 50404
Int'l Code: 1982-092ADS
Perigee: 471.5 km
Apogee: 1,273.8 km
Inclination: 82.3 °
Period: 102.3 minutes
Semi major axis: 7243 km
RCS: Unknown
Launch date: September 16, 1982
Source: Commonwealth of Independent States (former USSR) (CIS)
Launch site: PLESETSK MISSILE AND SPACE COMPLEX (PKMTR)

Note: This is SATELLITE DEBRIS
aabbcc
Your satellite tracking list
Your tracking list is empty




NASA's NSSDC Master Catalog

Two Line Element Set (TLE):
1 50404U 82092ADS 22333.51412158  .00006496  00000-0  88066-3 0  9990
2 50404  82.2709 157.8746 0553788  45.1326 319.3459 14.08202965 51421
Source of the keplerian elements: AFSPC